Simultaneous Nadir Overpasses (SNOs) Predictions

Prediction of SNOs between NOAA-21 and PACE Satellite Orbit:

Table of predicted SNOs for the next 14.0 days since TLE Epoch: 8/23/2024
Index Date (NOAA-21) Time (NOAA-21) Lat,Lon (NOAA-21) SZA (NOAA-21 ) Date (PACE) Time (PACE) Lat,Lon (PACE) SZA (PACE ) Distance(km) Time Diff (sec)
1 08/24/2024 11:34:32 79.89, -31.53 71.29 08/24/2024 11:35:28 79.90, -31.59 71.28 1.32 56
2 08/24/2024 12:25:10 -79.69, 137.74 109.08 08/24/2024 12:24:31 -79.69, 137.66 109.05 1.66 39
3 08/26/2024 16:00:55 79.84, -97.65 71.94 08/26/2024 16:01:05 79.84, -97.60 71.92 1.04 10
4 08/28/2024 19:36:37 -79.92, 27.69 107.19 08/28/2024 19:37:35 -79.91, 27.74 107.23 1.16 58
5 08/28/2024 20:27:15 79.71,-162.97 72.44 08/28/2024 20:26:39 79.72,-163.08 72.47 2.42 36
6 08/31/2024 00:02:58 -79.82, -37.95 106.61 08/31/2024 00:03:09 -79.83, -38.01 106.61 1.19 11
7 09/02/2024 03:38:42 79.97, 86.74 74.42 09/02/2024 03:39:39 79.96, 86.87 74.37 2.69 57
8 09/02/2024 04:29:18 -79.70,-103.38 106.07 09/02/2024 04:28:41 -79.71,-103.51 106.03 2.75 37
9 09/04/2024 08:05:02 79.85, 21.28 74.98 09/04/2024 08:05:10 79.85, 21.35 74.96 1.36 8
10 09/06/2024 11:40:43 -79.92, 146.72 104.13 09/06/2024 11:41:36 -79.92, 146.71 104.15 0.17 53



Historial Predications of SNOs between NOAA-21 and PACE
